This demonstration page uses our WeatherBlox Daily Observations layout. Learn more.

Left ArrowRight Arrow

Hourly Observations for July 25, 2022

Temp ( °F °C ) Dew Point ( °F °C ) Humidity (%) Winds ( mph kmh ) Pressure ( in mb ) Visibility ( mi km ) Precip ( " mm )
12:53 am 00:53 Clear 89 31.7 67 19.4 48 48 SSE 12 19 29.93 1014 10 16 0.00 0.00
1:53 am 01:53 Clear 88 31.1 68 20 52 52 S 10 17 29.93 1014 10 16 0.00 0.00
2:53 am 02:53 Clear 88 31.1 68 20 52 52 S 14 22 29.93 1014 10 16 0.00 0.00
3:53 am 03:53 Clear 87 30.6 68 20 53 53 S 10 17 29.94 1014 10 16 0.00 0.00
4:53 am 04:53 Mostly Clear 86 30 66 18.9 51 51 S 10 17 29.95 1014 10 16 0.00 0.00
5:53 am 05:53 Mostly Clear 85 29.4 66 18.9 53 53 SSW 6 9 29.96 1014 10 16 0.00 0.00
6:53 am 06:53 Partly Cloudy 84 28.9 67 19.4 57 57 S 7 11 29.98 1015 10 16 0.00 0.00
7:53 am 07:53 Mostly Sunny 84 28.9 68 20 59 59 S 7 11 29.98 1015 10 16 0.00 0.00
8:53 am 08:53 Mostly Sunny 87 30.6 67 19.4 51 51 S 9 15 29.98 1015 10 16 0.00 0.00
9:53 am 09:53 Mostly Sunny 89 31.7 66 18.9 47 47 SW 14 22 29.98 1015 10 16 0.00 0.00
10:53 am 10:53 Mostly Sunny 93 33.9 66 18.9 41 41 SW 8 13 29.98 1015 10 16 0.00 0.00
11:53 am 11:53 Mostly Sunny 95 35 65 18.3 37 37 SSE 9 15 29.98 1015 10 16 0.00 0.00
12:53 pm 12:53 Partly Cloudy 98 36.7 63 17.2 32 32 S 7 11 29.96 1015 10 16 0.00 0.00
1:53 pm 13:53 Partly Cloudy 99 37.2 62 16.7 30 30 SSE 13 20 29.94 1014 10 16 0.00 0.00
2:53 pm 14:53 Partly Cloudy 101 38.3 62 16.7 28 28 SSW 10 17 29.91 1013 10 16 0.00 0.00
3:53 pm 15:53 Partly Cloudy 103 39.4 62 16.7 26 26 S 13 20 29.89 1012 10 16 0.00 0.00
4:53 pm 16:53 Partly Cloudy 103 39.4 62 16.7 26 26 SE 14 22 29.87 1011 10 16 0.00 0.00
5:53 pm 17:53 Partly Cloudy 101 38.3 61 16.1 27 27 S 7 11 29.86 1011 10 16 0.00 0.00
6:53 pm 18:53 Partly Cloudy 101 38.3 61 16.1 27 27 SSE 8 13 29.85 1011 10 16 0.00 0.00
7:53 pm 19:53 Mostly Sunny 100 37.8 60 15.6 27 27 S 10 17 29.85 1011 10 16 0.00 0.00
8:53 pm 20:53 Partly Cloudy 98 36.7 60 15.6 28 28 S 7 11 29.86 1011 10 16 0.00 0.00
9:53 pm 21:53 Partly Cloudy 96 35.6 62 16.7 32 32 SSE 12 19 29.88 1012 10 16 0.00 0.00
10:53 pm 22:53 Mostly Clear 94 34.4 62 16.7 35 35 S 10 17 29.89 1012 10 16 0.00 0.00
11:53 pm 23:53 Mostly Clear 93 33.9 63 17.2 37 37 S 10 17 29.90 1013 10 16 0.00 0.00

Powered by AerisWeather